Location: Caltech
(34.1382°N, 118.1253°W)
Time: 21:47:38
(UTC-07:00)

Cosmos 2333 Rocket - Visible Passes

Search period start: 31 October 2014 00:00
Search period end: 09 November 2014 23:00
Orbit: 839 x 862 km, 70.9° (Epoch: 31 October)

Date Brightness Start Highest point End Pass type
(mag) Time Alt. Az. Time Alt. Az. Time Alt. Az.
31 Oct 4.8 19:30:54 10° W 19:34:02 15° NW 19:37:11 10° NNW visible
01 Nov 4.8 19:18:37 10° W 19:21:45 15° NW 19:24:54 10° NNW visible
02 Nov 4.8 18:06:20 10° W 18:09:28 15° NW 18:12:37 10° NNW visible
03 Nov 4.8 17:54:03 10° W 17:57:12 15° NW 18:00:20 10° NNW visible
04 Nov 4.8 17:41:46 10° W 17:44:55 15° NW 17:48:04 10° NNW visible
05 Nov 4.8 17:29:29 10° W 17:32:38 15° NW 17:35:47 10° NNW visible
06 Nov 4.7 17:17:12 10° W 17:20:21 15° NW 17:23:30 10° NNW visible
